Location: Lecco
(45.8566°N, 9.3977°E)
Time: 09:38:23
(UTC+02:00)

S-56A Canister/Altair - Pass Details

Date: 22 July 2019
Orbit: 633 x 2499 km, 38.9° (Epoch: 18 August)

Event Time Altitude Azimuth Distance (km) Brightness Sun altitude
Rises 13:25:30 0° 282° (WNW) 6,017 12.0 64.4°
Reaches altitude 10° 13:29:40 10° 276° (W) 5,108 11.8 64.4°
Maximum altitude 13:42:56 40° 215° (SW) 3,257 12.0 64.3°
Drops below altitude 10° 13:54:57 10° 152° (SSE) 4,616 11.9 63.9°
Sets 13:58:31 0° 145° (SE) 5,401 12.1 63.7°
